EST,Max TemperatureF,Mean TemperatureF,Min TemperatureF,Max Dew PointF,MeanDew PointF,Min DewpointF,Max Humidity, Mean Humidity, Min Humidity, Max Sea Level PressureIn, Mean Sea Level PressureIn, Min Sea Level PressureIn, Max VisibilityMiles, Mean VisibilityMiles, Min VisibilityMiles, Max Wind SpeedMPH, Mean Wind SpeedMPH, Max Gust SpeedMPH,PrecipitationIn, CloudCover, Events, WindDirDegrees
2013-12-1,35,26,17,27,23,14,91,78,64,30.24,30.06,29.92,10,8,2,10,5,14,T,7,Snow,180
2013-12-2,38,35,31,30,29,26,89,80,70,29.96,29.87,29.82,10,8,2,9,3,13,T,8,Snow,204
2013-12-3,40,34,27,33,29,24,96,86,76,29.97,29.89,29.82,10,4,0,7,2,9,0.00,7,Fog,127
2013-12-4,50,40,30,37,32,28,92,77,61,30.04,29.97,29.92,10,5,0,14,6,21,0.00,3,Fog,138
2013-12-5,57,46,35,53,43,31,89,83,77,29.99,29.90,29.83,10,7,3,20,9,28,0.11,7,Rain,219
2013-12-6,35,30,25,31,25,18,89,79,69,30.24,30.10,29.96,10,6,1,16,7,19,0.24,8,Rain-Snow,314
2013-12-7,25,20,15,21,15,9,81,74,67,30.56,30.37,30.17,10,8,3,17,8,21,T,8,Snow,300
2013-12-8,23,17,11,19,13,6,84,73,62,30.56,30.34,30.13,10,7,2,18,7,27,T,7,Rain-Snow,129
2013-12-9,34,29,23,32,26,17,89,79,68,30.10,29.94,29.87,10,5,0,18,11,29,0.02,8,Fog-Rain-Snow,206
2013-12-10,26,22,18,17,11,2,84,63,41,30.11,29.96,29.86,10,5,1,22,9,32,0.01,7,Snow,261
2013-12-11,20,17,14,13,10,6,80,71,62,30.28,30.16,30.10,10,3,0,17,10,26,0.01,8,Snow,254
2013-12-12,14,11,7,8,3,-2,84,68,51,30.35,30.22,30.04,10,6,0,18,9,26,T,8,Snow,261
2013-12-13,24,19,13,15,10,1,74,66,58,30.27,30.13,30.01,10,7,2,15,7,25,T,8,Snow,261
2013-12-14,27,22,17,22,17,11,88,81,74,30.30,30.02,29.63,10,2,0,22,11,29,0.20,8,Fog-Snow,125
2013-12-15,30,23,15,25,18,8,92,82,71,29.89,29.67,29.52,10,3,1,26,11,35,0.03,8,Snow,255
2013-12-16,18,7,-5,8,4,-10,87,71,54,30.17,29.99,29.80,10,5,2,16,6,23,T,7,Snow,259
2013-12-17,25,13,1,23,15,3,88,79,70,30.06,29.90,29.83,10,4,0,14,5,19,0.06,8,Fog-Snow,185
2013-12-18,25,23,21,18,17,13,84,76,68,30.12,29.98,29.86,10,4,1,16,8,23,0.01,8,Snow,252
2013-12-19,40,31,21,29,22,13,68,61,53,30.06,30.02,29.97,10,10,10,15,7,25,0.00,2,,230
2013-12-20,49,45,40,47,38,25,93,69,45,29.98,29.89,29.84,10,5,1,15,9,23,0.32,8,Rain,219
2013-12-21,58,53,48,56,51,46,100,95,89,29.87,29.82,29.69,10,5,0,15,9,25,1.05,8,Fog-Rain,208
2013-12-22,61,51,40,56,50,39,96,84,71,29.94,29.75,29.53,10,10,4,24,12,38,0.39,8,Rain,228
2013-12-23,42,34,26,39,31,18,93,81,68,30.22,30.04,29.94,10,8,1,17,9,24,0.03,8,Rain-Snow,279
2013-12-24,26,18,10,19,12,4,84,73,61,30.44,30.19,30.10,10,3,0,21,10,28,0.01,8,Fog-Snow,283
2013-12-25,21,9,-4,14,4,-8,86,71,56,30.49,30.36,30.12,10,8,2,12,5,18,T,5,Snow,164
2013-12-26,27,24,20,22,19,13,92,84,75,30.30,30.09,30.00,10,3,0,13,8,32,0.04,8,Fog-Rain-Snow,250
2013-12-27,31,26,20,23,18,13,78,73,68,30.29,30.26,30.19,10,9,6,13,5,20,0.01,6,Snow,234
2013-12-28,44,37,30,27,24,21,69,59,49,30.18,30.11,30.03,10,10,10,15,8,25,0.00,1,,226
2013-12-29,39,36,33,34,29,18,92,66,40,30.01,29.73,29.62,10,6,1,10,5,18,0.28,7,Rain-Snow,232
2013-12-30,34,24,13,29,12,4,85,72,59,30.17,30.01,29.71,10,7,1,22,10,26,T,8,Snow,300
2013-12-31,19,16,13,12,8,2,80,69,58,30.25,30.02,29.90,10,4,0,17,8,36,T,8,Snow,241